Location: Bacharowice
(49.9333°N, 19.5833°E)
Time: 08:39:59
(UTC+00:00)

Cosmos 44 - Pass Details

Date: 11 May 2021
Orbit: 571 x 791 km, 65.1° (Epoch: 21 June)

Event Time Altitude Azimuth Distance (km) Brightness Sun altitude
Rises 20:01:47 0° 320° (NW) 3,297 8.8 -13.7°
Reaches altitude 10° 20:04:20 10° 327° (NNW) 2,365 7.5 -14.0°
Maximum altitude 20:09:36 45° 40° (NE) 1,059 4.3 -14.5°
Enters shadow 20:13:35 16° 108° (ESE) 1,915 5.1 -14.9°
